Location: Bothwell
(42.3833°S, 147.0000°E)
Time: 18:44:45
(UTC+11:00)

SO-50 - Visible Passes

Search period start: 06 October 2022 00:00
Search period end: 16 October 2022 00:00
Orbit: 584 x 698 km, 64.6° (Epoch: 05 October)

Date Brightness Start Highest point End Pass type
(mag) Time Alt. Az. Time Alt. Az. Time Alt. Az.
06 Oct ? 20:54:30 10° WSW 20:58:04 24° WNW 21:01:39 10° NNW visible
08 Oct ? 20:02:27 10° SW 20:06:30 37° WNW 20:10:37 10° N visible
09 Oct ? 20:27:53 10° WSW 20:30:31 16° WNW 20:33:09 10° NNW visible
